Weather History for Buffalo, WY

Change the Weather History Date:

Friday, September 27, 2013

  Actual Average Record
Temperature  
Mean Temperature 35 °F 53 °F  
Max Temperature 39 °F 65 °F 86 °F (2001)
Min Temperature 31 °F 40 °F 29 °F (1999)
Degree Days  
Heating Degree Days 30 13  
Month to date heating degree days 116 208  
Since 1 July heating degree days 117 273  
Cooling Degree Days 0 0  
Month to date cooling degree days 95 44  
Year to date cooling degree days 709 490  
Moisture  
Dew Point 32 °F    
Average Humidity 89    
Maximum Humidity 100    
Minimum Humidity 78    
Precipitation  
Precipitation 0.57 in 0.05 in 0.57 in (2013)
Month to date precipitation 3.34 1.13  
Year to date precipitation 7.76 11.40  
Sea Level Pressure  
Sea Level Pressure 29.97 in    
Wind  
Wind Speed 6 mph (NW)    
Max Wind Speed 17 mph    
Max Gust Speed 26 mph    
Visibility 4 miles    
Events Rain , Snow    
T = Trace of Precipitation, MM = Missing Value Source: NWS Daily Summary

Daily Weather History Graph

Daily Weather History Graph

Search for Another Location

Airport:

Trip Planner

Search our weather history database for the weather conditions in past years. The results will help you decide how hot, cold, wet, or windy it might be!

Date:

Astronomy

Sep. 27, 2013 Rise Set
Actual Time 7:00 AM MDT 6:54 PM MDT
Civil Twilight 6:31 AM MDT 7:23 PM MDT
Nautical Twilight 5:57 AM MDT 7:57 PM MDT
Astronomical Twilight 5:23 AM MDT 8:31 PM MDT
Moon No Moon Rise 2:46 PM MDT (9/27)
Length of Visible Light 12h 51m
Length of Day
11h 54m
Last Quarter, 44% of the Moon is Illuminated
Sep 27
Last Quarter
Oct 4
New
Oct 11
First Quarter
Oct 18
Full
Oct 26
Last Quarter

Hourly Weather History & Observations

Time (MDT) Temp. Windchill Dew Point Humidity Pressure Visibility Wind Dir Wind Speed Gust Speed Precip Events Conditions
12:11 AM 33.8 °F 21.9 °F 32.0 °F 93% 29.97 in 1.2 mi NNW 21.9 mph 27.6 mph 0.08 in Snow Light Snow
12:22 AM 33.8 °F 22.2 °F 32.0 °F 93% 29.98 in 2.5 mi NNW 20.7 mph 28.8 mph 0.11 in Snow Light Snow
12:32 AM 33.8 °F 24.8 °F 32.0 °F 93% 30.00 in 3.0 mi NNW 12.7 mph 27.6 mph 0.12 in Snow Light Snow
12:49 AM 33.8 °F 25.8 °F 32.0 °F 93% 29.98 in 1.8 mi NNW 10.4 mph - 0.13 in Snow Light Snow
12:53 AM 33.1 °F 24.9 °F 32.0 °F 96% 30.00 in 1.2 mi NNW 10.4 mph - 0.13 in Snow Light Snow
1:01 AM 33.8 °F 23.9 °F 32.0 °F 93% 29.98 in 3.0 mi NNW 15.0 mph 26.5 mph 0.01 in Snow Light Snow
1:15 AM 33.8 °F 24.8 °F 32.0 °F 93% 29.97 in 2.0 mi North 12.7 mph 25.3 mph 0.03 in Snow Light Snow
1:22 AM 33.8 °F 25.3 °F 32.0 °F 93% 29.98 in 1.8 mi NNW 11.5 mph 24.2 mph 0.04 in Snow Light Snow
1:39 AM 33.8 °F 25.3 °F 32.0 °F 93% 29.96 in 0.8 mi NNW 11.5 mph - 0.07 in Snow Light Snow
1:48 AM 33.8 °F 24.8 °F 32.0 °F 93% 29.96 in 1.2 mi NNW 12.7 mph 21.9 mph 0.08 in Snow Light Snow
1:53 AM 33.1 °F 23.0 °F 33.1 °F 100% 29.98 in 2.5 mi NNW 15.0 mph 23.0 mph 0.08 in Snow Light Snow
2:00 AM 33.8 °F 23.9 °F 33.8 °F 100% 29.97 in 4.0 mi NW 15.0 mph 25.3 mph 0.02 in Snow Light Snow
2:11 AM 33.8 °F 25.3 °F 33.8 °F 100% 29.99 in 2.0 mi NW 11.5 mph - 0.03 in Snow Light Snow
2:22 AM 33.8 °F 25.8 °F 33.8 °F 100% 29.98 in 6.0 mi NNW 10.4 mph - 0.04 in Snow Light Snow
2:53 AM 34.0 °F 26.6 °F 34.0 °F 100% 29.98 in 2.5 mi NNW 9.2 mph - 0.08 in Snow Light Snow
2:57 AM 33.8 °F 27.0 °F 33.8 °F 100% 29.98 in 1.8 mi NW 8.1 mph - 0.00 in Snow Light Snow
3:18 AM 33.8 °F 26.4 °F 33.8 °F 100% 29.97 in 1.5 mi NNW 9.2 mph - 0.05 in Snow Light Snow
3:31 AM 33.8 °F 25.8 °F 33.8 °F 100% 29.97 in 1.0 mi NNW 10.4 mph - 0.07 in Snow Light Snow
3:42 AM 33.8 °F 25.8 °F 33.8 °F 100% 29.96 in 1.0 mi NNW 10.4 mph - 0.08 in Snow Light Snow
3:53 AM 33.1 °F 24.4 °F 33.1 °F 100% 29.97 in 0.8 mi NNW 11.5 mph - 0.10 in Snow Light Snow
4:20 AM 33.8 °F 25.3 °F 33.8 °F 100% 29.94 in 1.2 mi NW 11.5 mph - 0.04 in Snow Light Snow
4:28 AM 33.8 °F 24.8 °F 33.8 °F 100% 29.93 in 3.0 mi NW 12.7 mph - 0.04 in Snow Light Snow
4:45 AM 33.8 °F 24.8 °F 33.8 °F 100% 29.94 in 2.5 mi NW 12.7 mph - 0.05 in Snow Light Snow
4:53 AM 33.1 °F 23.9 °F 33.1 °F 100% 29.96 in 2.5 mi NW 12.7 mph - 0.05 in Snow Light Snow
5:04 AM 33.8 °F 24.8 °F 33.8 °F 100% 29.94 in 1.5 mi NW 12.7 mph - 0.01 in Snow Light Snow
5:18 AM 33.8 °F 25.3 °F 33.8 °F 100% 29.95 in 2.0 mi NW 11.5 mph - 0.02 in Snow Light Snow
5:26 AM 33.8 °F 25.3 °F 33.8 °F 100% 29.95 in 1.5 mi NNW 11.5 mph - 0.03 in Snow Light Snow
5:53 AM 33.1 °F 24.9 °F 32.0 °F 96% 29.97 in 1.8 mi NNW 10.4 mph - 0.05 in Snow Light Snow
6:01 AM 33.8 °F 26.4 °F 33.8 °F 100% 29.94 in 2.5 mi NNW 9.2 mph - 0.00 in Snow Light Snow
6:28 AM 33.8 °F 27.0 °F 32.0 °F 93% 29.95 in 4.0 mi NW 8.1 mph - 0.01 in Snow Light Snow
6:53 AM 33.1 °F 25.5 °F 32.0 °F 96% 29.99 in 2.5 mi NW 9.2 mph - 0.02 in Snow Light Snow
7:10 AM 33.8 °F 27.7 °F 32.0 °F 93% 29.95 in 3.0 mi NW 6.9 mph - 0.01 in Snow Light Snow
7:26 AM 33.8 °F 27.7 °F 32.0 °F 93% 29.95 in 2.0 mi NW 6.9 mph - 0.02 in Snow Light Snow
7:35 AM 33.8 °F 27.7 °F 32.0 °F 93% 29.94 in 1.8 mi NW 6.9 mph - 0.02 in Snow Light Snow
7:44 AM 33.8 °F 27.0 °F 32.0 °F 93% 29.94 in 2.5 mi NW 8.1 mph - 0.02 in Snow Light Snow
7:53 AM 33.1 °F 26.9 °F 32.0 °F 96% 29.98 in 4.0 mi NW 6.9 mph - 0.03 in Snow Light Snow
8:36 AM 33.8 °F 27.7 °F 32.0 °F 93% 29.95 in 2.0 mi NW 6.9 mph - 0.01 in Snow Light Snow
8:53 AM 34.0 °F 28.0 °F 32.0 °F 92% 29.99 in 3.0 mi NW 6.9 mph - 0.02 in Snow Light Snow
9:02 AM 33.8 °F 27.7 °F 32.0 °F 93% 29.96 in 2.5 mi NW 6.9 mph - 0.00 in Snow Light Snow
9:27 AM 33.8 °F 28.6 °F 32.0 °F 93% 29.96 in 1.8 mi NW 5.8 mph - 0.01 in Snow Light Snow
9:37 AM 33.8 °F 27.7 °F 32.0 °F 93% 29.96 in 2.0 mi NNW 6.9 mph - 0.01 in Snow Light Snow
9:53 AM 33.1 °F 28.7 °F 32.0 °F 96% 30.02 in 1.2 mi NW 4.6 mph - 0.02 in Snow Light Snow
10:14 AM 33.8 °F 29.6 °F 32.0 °F 93% 29.96 in 1.0 mi NNW 4.6 mph - 0.01 in Snow Light Snow
10:22 AM 33.8 °F 29.6 °F 32.0 °F 93% 29.96 in 0.8 mi NNW 4.6 mph - 0.01 in Snow Light Snow
10:49 AM 33.8 °F 27.0 °F 32.0 °F 93% 29.95 in 1.0 mi NW 8.1 mph - 0.03 in Snow Light Snow
10:53 AM 33.1 °F 26.1 °F 32.0 °F 96% 30.01 in 1.0 mi NNW 8.1 mph - 0.03 in Snow Light Snow
11:17 AM 33.8 °F 27.0 °F 32.0 °F 93% 29.96 in 1.2 mi NW 8.1 mph - 0.01 in Snow Light Snow
11:53 AM 34.0 °F 28.0 °F 32.0 °F 92% 30.01 in 1.8 mi NNW 6.9 mph - 0.02 in Snow Light Snow
12:53 PM 34.0 °F 27.2 °F 32.0 °F 92% 29.99 in 1.0 mi NNW 8.1 mph - 0.03 in Snow Light Snow
1:09 PM 33.8 °F 27.7 °F 32.0 °F 93% 29.94 in 1.5 mi NW 6.9 mph - 0.01 in Snow Light Snow
1:25 PM 33.8 °F 28.6 °F 32.0 °F 93% 29.96 in 2.0 mi NW 5.8 mph - 0.02 in Snow Light Snow
1:45 PM 33.8 °F 29.6 °F 33.8 °F 100% 29.95 in 4.0 mi NW 4.6 mph - 0.02 in Snow Light Snow
1:53 PM 35.1 °F 30.1 °F 33.1 °F 92% 29.99 in 6.0 mi NW 5.8 mph - 0.02 in Snow Light Snow
2:42 PM 35.6 °F 32.8 °F 33.8 °F 93% 29.95 in 9.0 mi NW 3.5 mph - 0.01 in   Overcast
2:53 PM 35.1 °F - 33.1 °F 92% 29.98 in 10.0 mi Calm Calm - 0.01 in   Overcast
3:36 PM 35.6 °F 31.7 °F 33.8 °F 93% 29.95 in 10.0 mi NW 4.6 mph - 0.01 in Rain Light Rain
3:53 PM 35.1 °F 31.0 °F 33.1 °F 92% 29.98 in 7.0 mi NW 4.6 mph - 0.01 in Rain Light Rain
4:04 PM 35.6 °F 32.8 °F 33.8 °F 93% 29.94 in 9.0 mi NW 3.5 mph - 0.00 in   Overcast
4:53 PM 36.0 °F - 34.0 °F 93% 29.99 in 10.0 mi Calm Calm - 0.00 in   Overcast
5:14 PM 35.6 °F - 33.8 °F 93% 29.97 in 10.0 mi Calm Calm - N/A   Overcast
5:53 PM 36.0 °F - 32.0 °F 86% 30.02 in 10.0 mi Calm Calm - N/A   Overcast
6:53 PM 35.1 °F 32.2 °F 32.0 °F 89% 30.03 in 10.0 mi SW 3.5 mph - 0.00 in Rain Light Rain
7:13 PM 35.6 °F - 33.8 °F 93% 29.98 in 10.0 mi Calm Calm - 0.00 in Rain Light Rain
7:53 PM 35.1 °F 32.2 °F 32.0 °F 89% 30.03 in 10.0 mi SSW 3.5 mph - 0.00 in   Partly Cloudy
8:53 PM 33.1 °F 26.9 °F 30.9 °F 92% 30.03 in 10.0 mi South 6.9 mph - N/A   Clear
9:53 PM 32.0 °F 28.7 °F 28.9 °F 88% 30.02 in 10.0 mi South 3.5 mph - N/A   Clear
10:53 PM 32.0 °F - 28.0 °F 85% 30.00 in 10.0 mi Calm Calm - N/A   Clear
11:53 PM 30.9 °F 26.2 °F 25.0 °F 79% 29.99 in 10.0 mi WSW 4.6 mph - N/A   Clear